Location: Cartignies
(50.0929°N, 3.8447°E)
Time: 13:59:51
(UTC+00:00)

BREEZE-M DEB (TANK) - Pass Details

Date: 12 January 2026
Orbit: 761 x 22166 km, 51.3° (Epoch: 14 February)

Event Time Altitude Azimuth Distance (km) Brightness Sun altitude
Rises 17:02:46 0° 247° (WSW) 5,437 9.9 -8.7°
Reaches altitude 10° 17:07:03 10° 247° (WSW) 3,405 8.0 -9.4°
Maximum altitude 17:13:21 80° 161° (SSE) 825 3.2 -10.3°
Enters shadow 17:17:00 14° 75° (ENE) 2,045 4.5 -10.9°
